#timestamp,LO_Frequency,Hit,StdDev 
1681700415.5,286047002.8,N
1681700435.3,286047002.7,N
1681700455.2,286047001.7,N
1681700475.0,286047003.7,N
1681700475.9,286047003.7,N
1681700495.7,286047004.4,N
1681700515.6,286047001.7,N
1681700535.4,286047002.2,N
1681700555.3,286047001.6,N
1681700575.1,286047004.3,N
1681700595.8,286047001.9,N
1681700615.7,286047001.3,N
1681700635.5,286047001.7,N
1681700655.4,286047001.8,N
1681700675.2,286047003.7,N
1681700695.0,286047003.6,N
1681700695.9,286047003.6,N
1681700715.8,286047005.9,Y
1681700735.6,286047004.1,P
1681700755.5,286047003.8,N
1681700775.3,286047003.2,N
1681700795.1,286047003.8,Y
1681700815.9,286047001.0,P
1681700835.7,286047001.2,N
1681700855.6,286046999.0,N
1681700875.4,286046999.1,N
1681700895.2,286046999.5,N
1681700915.1,286046999.6,N
1681700916.0,286046999.6,N
1681700935.8,286046999.1,N
1681700955.6,286046996.6,N
1681700975.5,286046997.8,N
1681700995.3,286046995.5,N
1681701015.2,286046995.0,N
1681701035.9,286046995.8,N
1681701055.7,286046995.3,N
1681701075.6,286046996.0,N
1681701095.4,286046997.3,N
1681701115.2,286046999.3,N
1681701135.1,286046998.3,N
1681701136.0,286046998.3,N
1681701155.8,286046998.2,N
1681701175.7,286046998.7,N
1681701195.5,286047000.6,N
1681701215.3,286046998.2,N
1681701235.2,286046999.9,N
1681701255.0,286047000.4,N
1681701255.9,286047000.4,N
1681701275.7,286047000.2,N
1681701295.6,286047000.8,N
1681701315.4,286047001.0,N
1681701335.3,286047001.1,N
1681701385.1,286046998.3,E
1681701395.0,286047000.7,N
1681701395.9,286047000.7,P
1681701415.8,286046999.9,P
1681701435.6,286047000.6,N
1681701455.5,286047002.2,Y
1681701475.3,286046999.8,P
1681701495.2,286047001.6,P
1681701515.9,286047002.0,N
1681701535.7,286046999.7,N
1681701555.6,286046999.9,N
1681701575.4,286046999.9,N
1681701595.2,286047000.6,N
1681701615.1,286047002.3,N
1681701616.0,286047002.3,N
1681701635.8,286046999.9,N
1681701655.7,286047000.2,N
1681701675.5,286047002.6,N
1681701695.3,286047002.5,N
1681701715.2,286047002.8,N
1681701735.9,286047002.1,N
1681701755.7,286047002.2,N
1681701775.6,286046999.7,N
1681701795.4,286046999.8,N
1681701815.2,286046999.7,N
1681701835.1,286047000.0,N
1681701836.0,286047000.0,N
1681701855.8,286046999.7,N
1681701875.7,286047002.6,N
1681701895.5,286047000.2,N
1681701915.3,286047000.4,N
1681701935.2,286047002.8,N
1681701955.0,286047000.8,N
1681701955.9,286047000.8,N
1681701975.8,286047000.0,N
1681701995.6,286047002.8,N
1681702015.4,286047000.2,N
1681702035.3,286047000.3,N
1681702055.1,286047001.1,N
1681702075.8,286047000.9,N
1681702095.7,286046998.2,N
1681702115.5,286047000.6,N
1681702135.4,286046999.9,N
1681702155.2,286047000.5,N
1681702175.0,286046998.4,N
1681702175.9,286046998.4,N
1681702195.8,286046998.5,N
1681702215.6,286047000.0,N
1681702235.4,286047000.8,N
1681702255.3,286047001.0,N
1681702275.1,286046998.2,N
1681702295.9,286046999.8,N
1681702315.7,286047004.4,Y
1681702335.5,286047001.6,P
1681702355.4,286047002.7,P
1681702375.2,286047002.8,N
1681702395.0,286047000.2,N
1681702395.9,286047000.2,N
1681702415.8,286047001.8,N
1681702435.6,286047002.4,N
1681702455.5,286047001.3,N
1681702475.3,286047001.5,N
1681702495.1,286047001.9,N
1681702515.9,286047002.7,N
1681702535.7,286047002.2,N
1681702555.5,286047002.1,N
1681702575.4,286047002.0,N
1681702595.2,286047003.6,Y
1681702615.1,286047001.8,P
1681702616.0,286047001.8,P
1681702635.8,286047002.5,P
1681702655.6,286047002.7,Y
1681702675.5,286046998.2,P
1681702695.3,286046998.9,N
1681702715.2,286046998.4,N
1681702735.9,286047001.1,N
1681702755.7,286046998.2,N
1681702775.6,286047001.1,N
1681702795.4,286047000.3,N
1681702815.2,286047001.2,N
1681702835.1,286046998.9,N
1681702836.0,286046998.9,N
1681702855.8,286047001.1,N
1681702875.7,286047001.0,N
1681702895.5,286047001.0,N
1681702915.3,286047000.8,N
1681702935.2,286047000.8,N
1681702955.0,286046998.1,N
1681702955.9,286046998.1,N
1681702975.7,286046998.3,N
1681702995.6,286046998.1,N
1681703015.4,286047000.8,N
1681703035.3,286047000.8,N
1681703055.1,286047000.0,N
1681703075.8,286047000.2,N
1681703095.7,286046999.8,N
1681703115.5,286047002.3,N
1681703135.4,286047002.6,N
1681703155.2,286047001.1,N
1681703175.0,286046999.3,N
1681703175.9,286046999.3,N
1681703195.8,286046996.6,N
1681703215.6,286046999.5,N
1681703235.4,286046996.7,N
1681703255.3,286046998.9,N
1681703275.1,286046999.0,N
1681703295.9,286046998.6,N
1681703315.7,286046996.6,N
1681703335.5,286046996.6,N
1681703355.4,286046999.4,N
1681703375.2,286047001.1,N
1681703395.0,286046998.4,N
1681703395.9,286046998.4,N
1681703415.8,286046996.5,N
1681703435.6,286046995.1,N
1681703455.5,286046997.9,N
1681703475.3,286046996.5,N
1681703495.1,286046999.5,N
1681703515.9,286046996.9,N
1681703535.7,286046998.4,N
1681703555.6,286047002.4,N
1681703575.4,286047002.3,N
1681703595.2,286047002.8,N
1681703615.1,286047000.0,N
1681703616.0,286047000.0,N
1681703635.8,286047000.8,N
1681703655.6,286047001.2,N
1681703675.5,286046998.1,N
1681703695.3,286047000.3,N
1681703715.2,286047000.3,N
1681703735.9,286047002.2,N
1681703755.7,286047000.4,N
1681703775.6,286047000.9,N
1681703795.4,286046999.1,N
1681703815.2,286046996.5,N
1681703835.1,286046999.2,N
1681703836.0,286046999.2,N
1681703855.8,286046999.2,N
1681703875.7,286046999.4,N
1681703895.5,286046999.6,N
1681703915.3,286046998.7,N
1681703935.2,286046998.6,N
1681703955.0,286046998.2,N
1681703955.9,286046998.2,N
1681703975.8,286046998.9,N
1681703995.6,286046999.4,N
